,,Stat6,,Stat2,,Stat8,,Stat9,,Stat10,,Wind1,,Wind1,
time,status,PA1M_AVG,status,PR1M_SUM,status,RH1M_AVG,status,SR1M_AVG,status,TA1M_AVG,status,W1dAve1m,status,W1sAve1m,
2009-07-12, 00:00:00,VALID,917.596,VALID,0,VALID,100,VALID,0.0339617,VALID,17.7388,VALID,33,VALID,0,
2009-07-12, 00:01:01,VALID,917.602,VALID,0,VALID,100,VALID,0,VALID,17.7492,VALID,33,VALID,0,
2009-07-12, 00:02:01,VALID,917.613,VALID,0,VALID,100,VALID,0,VALID,17.7522,VALID,36,VALID,0.00590278,
2009-07-12, 00:03:01,VALID,917.604,VALID,0,VALID,100,VALID,-0.0169808,VALID,17.7721,VALID,72,VALID,0.553943,
2009-07-12, 00:04:00,VALID,917.603,VALID,0,VALID,100,VALID,0,VALID,17.7782,VALID,69,VALID,0.0779474,
2009-07-12, 00:05:00,VALID,917.593,VALID,0,VALID,100,VALID,0.0169808,VALID,17.7883,VALID,69,VALID,0,
2009-07-12, 00:06:00,VALID,917.592,VALID,0,VALID,100,VALID,0.0169808,VALID,17.7847,VALID,69,VALID,0,
2009-07-12, 00:07:00,VALID,917.591,VALID,0,VALID,100,VALID,0,VALID,17.7745,VALID,69,VALID,0,
2009-07-12, 00:08:00,VALID,917.589,VALID,0,VALID,100,VALID,0.0339617,VALID,17.781,VALID,69,VALID,0,
2009-07-12, 00:09:00,VALID,917.604,VALID,0,VALID,100,VALID,0,VALID,17.7942,VALID,69,VALID,0,
2009-07-12, 00:10:01,VALID,917.615,VALID,0,VALID,100,VALID,0,VALID,17.8078,VALID,69,VALID,0.00677083,
2009-07-12, 00:11:00,VALID,917.613,VALID,0,VALID,100,VALID,0,VALID,17.8106,VALID,16,VALID,0.483681,
2009-07-12, 00:12:00,VALID,917.605,VALID,0,VALID,100,VALID,-0.0509425,VALID,17.8377,VALID,12,VALID,0.00508721,
2009-07-12, 00:13:00,VALID,917.596,VALID,0,VALID,100,VALID,-0.101885,VALID,17.8342,VALID,27,VALID,0,
2009-07-12, 00:14:00,VALID,917.613,VALID,0,VALID,100,VALID,-0.0849042,VALID,17.8506,VALID,27,VALID,0,
2009-07-12, 00:15:01,VALID,917.627,VALID,0,VALID,100,VALID,-0.0849042,VALID,17.8608,VALID,27,VALID,0,
2009-07-12, 00:16:01,VALID,917.622,VALID,0,VALID,100,VALID,-0.101885,VALID,17.8703,VALID,30,VALID,0.0465116,
2009-07-12, 00:17:01,VALID,917.629,VALID,0,VALID,100,VALID,-0.101885,VALID,17.8958,VALID,35,VALID,0.341667,
2009-07-12, 00:18:00,VALID,917.616,VALID,0,VALID,100,VALID,-0.101885,VALID,17.9285,VALID,35,VALID,0,
2009-07-12, 00:19:00,VALID,917.61,VALID,0,VALID,100,VALID,-0.0849042,VALID,17.9347,VALID,35,VALID,0,
2009-07-12, 00:20:00,VALID,917.61,VALID,0,VALID,100,VALID,-0.0679233,VALID,17.9477,VALID,35,VALID,0,
2009-07-12, 00:21:00,VALID,917.602,VALID,0,VALID,100,VALID,-0.0849042,VALID,17.9609,VALID,35,VALID,0,
2009-07-12, 00:22:01,VALID,917.604,VALID,0,VALID,100,VALID,-0.101885,VALID,17.9609,VALID,104,VALID,0,
2009-07-12, 00:23:00,VALID,917.606,VALID,0,VALID,100,VALID,-0.101885,VALID,17.9745,VALID,120,VALID,0,
2009-07-12, 00:24:00,VALID,917.611,VALID,0,VALID,100,VALID,-0.0849042,VALID,17.9736,VALID,120,VALID,0,
2009-07-12, 00:25:00,VALID,917.603,VALID,0,VALID,100,VALID,-0.0849042,VALID,17.9736,VALID,120,VALID,0,
2009-07-12, 00:26:00,VALID,917.605,VALID,0,VALID,100,VALID,-0.0679233,VALID,17.9996,VALID,107,VALID,0.288867,
2009-07-12, 00:27:00,VALID,917.632,VALID,0,VALID,100,VALID,-0.0849042,VALID,18.0221,VALID,94,VALID,0.00563227,
2009-07-12, 00:28:01,VALID,917.639,VALID,0,VALID,100,VALID,-0.0849042,VALID,18.0058,VALID,89,VALID,0,
2009-07-12, 00:29:00,VALID,917.654,VALID,0,VALID,100,VALID,-0.0849042,VALID,18,VALID,51,VALID,0.300071,
2009-07-12, 00:30:00,VALID,917.664,VALID,0,VALID,100,VALID,-0.0849042,VALID,17.9868,VALID,40,VALID,0.393288,
2009-07-12, 00:31:00,VALID,917.691,VALID,0,VALID,100,VALID,-0.0679233,VALID,17.9831,VALID,26,VALID,0.826982,
2009-07-12, 00:32:01,VALID,917.696,VALID,0,VALID,100,VALID,-0.0339617,VALID,17.9864,VALID,19,VALID,0.793527,
2009-07-12, 00:33:00,VALID,917.695,VALID,0,VALID,100,VALID,-0.0849042,VALID,17.9801,VALID,19,VALID,0.459263,
2009-07-12, 00:34:01,VALID,917.691,VALID,0,VALID,100,VALID,-0.0849042,VALID,17.9866,VALID,22,VALID,1.05934,
2009-07-12, 00:35:00,VALID,917.672,VALID,0,VALID,100,VALID,-0.0849042,VALID,18.0033,VALID,29,VALID,0.883003,
2009-07-12, 00:36:01,VALID,917.656,VALID,0,VALID,100,VALID,-0.0679233,VALID,18.0262,VALID,31,VALID,1.262,
2009-07-12, 00:37:00,VALID,917.641,VALID,0,VALID,100,VALID,-0.0849042,VALID,18.0417,VALID,33,VALID,1.17241,
2009-07-12, 00:38:01,VALID,917.629,VALID,0,VALID,100,VALID,-0.0509425,VALID,18.0482,VALID,20,VALID,1.19444,
2009-07-12, 00:39:00,VALID,917.632,VALID,0,VALID,100,VALID,-0.0509425,VALID,18.0547,VALID,25,VALID,1.22693,
2009-07-12, 00:40:01,VALID,917.613,VALID,0,VALID,100,VALID,-0.101885,VALID,18.0744,VALID,28,VALID,1.10258,
2009-07-12, 00:41:00,VALID,917.604,VALID,0,VALID,100,VALID,-0.118866,VALID,18.1034,VALID,29,VALID,1.17024,
2009-07-12, 00:42:00,VALID,917.595,VALID,0,VALID,100,VALID,-0.101885,VALID,18.1001,VALID,30,VALID,1.07533,
2009-07-12, 00:43:00,VALID,917.566,VALID,0,VALID,100,VALID,-0.0849042,VALID,18.1233,VALID,33,VALID,0.974414,
2009-07-12, 00:44:01,VALID,917.562,VALID,0,VALID,100,VALID,-0.101885,VALID,18.1098,VALID,27,VALID,0.888765,
2009-07-12, 00:45:01,VALID,917.544,VALID,0,VALID,100,VALID,-0.101885,VALID,18.1071,VALID,13,VALID,0.697396,
2009-07-12, 00:46:01,VALID,917.531,VALID,0,VALID,100,VALID,-0.118866,VALID,18.0712,VALID,13,VALID,0.628806,
2009-07-12, 00:47:01,VALID,917.521,VALID,0,VALID,100,VALID,-0.101885,VALID,18.0612,VALID,13,VALID,0.428163,
2009-07-12, 00:48:00,VALID,917.505,VALID,0,VALID,100,VALID,-0.0849042,VALID,18.058,VALID,13,VALID,0,
2009-07-12, 00:49:00,VALID,917.49,VALID,0,VALID,100,VALID,-0.0849042,VALID,18.0512,VALID,17,VALID,0.403054,
2009-07-12, 00:50:01,VALID,917.47,VALID,0,VALID,100,VALID,-0.0849042,VALID,18.0482,VALID,12,VALID,0.21968,
2009-07-12, 00:51:01,VALID,917.456,VALID,0,VALID,100,VALID,-0.135847,VALID,18.029,VALID,15,VALID,0.754001,
2009-07-12, 00:52:01,VALID,917.463,VALID,0,VALID,100,VALID,-0.101885,VALID,18.0095,VALID,20,VALID,0.95367,
2009-07-12, 00:53:01,VALID,917.459,VALID,0,VALID,100,VALID,-0.101885,VALID,18.0061,VALID,36,VALID,1.01914,
2009-07-12, 00:54:01,VALID,917.461,VALID,0,VALID,100,VALID,-0.0849042,VALID,18.0158,VALID,47,VALID,0.606712,
2009-07-12, 00:55:01,VALID,917.459,VALID,0,VALID,100,VALID,-0.0849042,VALID,18.0258,VALID,31,VALID,0.343192,
2009-07-12, 00:56:01,VALID,917.454,VALID,0,VALID,100,VALID,-0.0849042,VALID,18.0255,VALID,36,VALID,0.0697409,
2009-07-12, 00:57:00,VALID,917.443,VALID,0,VALID,100,VALID,-0.0169808,VALID,18.0311,VALID,41,VALID,0.165334,
2009-07-12, 00:58:00,VALID,917.428,VALID,0,VALID,100,VALID,0.0169808,VALID,18.0211,VALID,11,VALID,0.799538,
2009-07-12, 00:59:00,VALID,917.424,VALID,0,VALID,100,VALID,0.0169808,VALID,18.0214,VALID,30,VALID,0.900799,
2009-07-12, 01:00:00,VALID,917.412,VALID,0,VALID,100,VALID,0,VALID,18.0209,VALID,19,VALID,0.356286,
2009-07-12, 01:01:00,VALID,917.425,VALID,0,VALID,100,VALID,0,VALID,18.0246,VALID,19,VALID,0,
2009-07-12, 01:02:00,VALID,917.422,VALID,0,VALID,100,VALID,-0.0169808,VALID,18.0144,VALID,19,VALID,0,
2009-07-12, 01:03:00,VALID,917.398,VALID,0,VALID,100,VALID,0.0339617,VALID,18.0274,VALID,19,VALID,0.185547,
2009-07-12, 01:04:00,VALID,917.397,VALID,0,VALID,100,VALID,0,VALID,18.0244,VALID,19,VALID,0.0684956,
2009-07-12, 01:05:00,VALID,917.371,VALID,0,VALID,100,VALID,0,VALID,18.0209,VALID,19,VALID,0,
2009-07-12, 01:06:00,VALID,917.366,VALID,0,VALID,100,VALID,0,VALID,18.0242,VALID,19,VALID,0,
2009-07-12, 01:07:00,VALID,917.354,VALID,0,VALID,100,VALID,0,VALID,18.0244,VALID,35,VALID,0.382118,
2009-07-12, 01:08:00,VALID,917.366,VALID,0,VALID,100,VALID,0,VALID,18.0177,VALID,36,VALID,0.115854,
2009-07-12, 01:09:00,VALID,917.373,VALID,0,VALID,100,VALID,0.0169808,VALID,18.0179,VALID,35,VALID,0,
2009-07-12, 01:10:00,VALID,917.374,VALID,0,VALID,100,VALID,0.0169808,VALID,18.0274,VALID,28,VALID,0.401296,
2009-07-12, 01:11:00,VALID,917.354,VALID,0,VALID,100,VALID,0.0169808,VALID,18.0276,VALID,25,VALID,0.53766,
2009-07-12, 01:12:00,VALID,917.341,VALID,0,VALID,100,VALID,0,VALID,18.0309,VALID,25,VALID,0.835938,
2009-07-12, 01:13:00,VALID,917.345,VALID,0,VALID,100,VALID,0,VALID,18.0274,VALID,38,VALID,1.20676,
2009-07-12, 01:14:00,VALID,917.345,VALID,0,VALID,100,VALID,0.0169808,VALID,18.0436,VALID,24,VALID,0.883176,
2009-07-12, 01:15:00,VALID,917.34,VALID,0,VALID,100,VALID,0.0169808,VALID,18.057,VALID,25,VALID,0.861192,
2009-07-12, 01:16:00,VALID,917.32,VALID,0,VALID,100,VALID,0.0339617,VALID,18.0598,VALID,35,VALID,0.645419,
2009-07-12, 01:17:00,VALID,917.321,VALID,0,VALID,100,VALID,0,VALID,18.0726,VALID,20,VALID,0.783249,
2009-07-12, 01:18:00,VALID,917.291,VALID,0,VALID,100,VALID,0.0169808,VALID,18.0925,VALID,21,VALID,0.4871,
2009-07-12, 01:19:00,VALID,917.271,VALID,0,VALID,100,VALID,0,VALID,18.0925,VALID,25,VALID,1.20621,
2009-07-12, 01:20:00,VALID,917.252,VALID,0,VALID,100,VALID,0.0169808,VALID,18.1251,VALID,355,VALID,0.706845,
2009-07-12, 01:21:00,VALID,917.234,VALID,0,VALID,100,VALID,0.0169808,VALID,18.1247,VALID,23,VALID,1.1092,
2009-07-12, 01:22:00,VALID,917.231,VALID,0,VALID,100,VALID,0,VALID,18.1349,VALID,14,VALID,0.867746,
2009-07-12, 01:23:00,VALID,917.233,VALID,0,VALID,100,VALID,0,VALID,18.1441,VALID,32,VALID,0.662729,
2009-07-12, 01:24:00,VALID,917.222,VALID,0,VALID,100,VALID,0.0509425,VALID,18.1506,VALID,41,VALID,0,
2009-07-12, 01:25:00,VALID,917.195,VALID,0,VALID,100,VALID,0.0169808,VALID,18.1671,VALID,52,VALID,0.71176,
2009-07-12, 01:26:00,VALID,917.186,VALID,0,VALID,100,VALID,0.0169808,VALID,18.1638,VALID,346,VALID,0.730664,
2009-07-12, 01:27:00,VALID,917.186,VALID,0,VALID,100,VALID,-0.0679233,VALID,18.1717,VALID,12,VALID,0.00572917,
2009-07-12, 01:28:00,VALID,917.163,VALID,0,VALID,100,VALID,-0.101885,VALID,18.1747,VALID,101,VALID,0,
2009-07-12, 01:29:00,VALID,917.175,VALID,0,VALID,100,VALID,-0.0849042,VALID,18.1819,VALID,100,VALID,0.179008,
2009-07-12, 01:30:00,VALID,917.155,VALID,0,VALID,100,VALID,-0.0849042,VALID,18.1881,VALID,86,VALID,0.329492,
2009-07-12, 01:31:00,VALID,917.132,VALID,0,VALID,100,VALID,-0.118866,VALID,18.1946,VALID,2,VALID,0.816501,
2009-07-12, 01:32:00,VALID,917.149,VALID,0,VALID,100,VALID,-0.101885,VALID,18.1946,VALID,328,VALID,0,
2009-07-12, 01:33:00,VALID,917.121,VALID,0,VALID,100,VALID,-0.101885,VALID,18.1879,VALID,274,VALID,0.106468,
2009-07-12, 01:34:00,VALID,917.119,VALID,0,VALID,100,VALID,-0.118866,VALID,18.1879,VALID,267,VALID,0.72202,
2009-07-12, 01:35:00,VALID,917.12,VALID,0,VALID,100,VALID,-0.0849042,VALID,18.2273,VALID,292,VALID,0,
2009-07-12, 01:36:00,VALID,917.111,VALID,0,VALID,100,VALID,-0.0849042,VALID,18.2266,VALID,326,VALID,0.000195313,
2009-07-12, 01:37:00,VALID,917.107,VALID,0,VALID,100,VALID,-0.101885,VALID,18.2368,VALID,63,VALID,0.614453,
2009-07-12, 01:38:00,VALID,917.085,VALID,0,VALID,100,VALID,-0.118866,VALID,18.247,VALID,34,VALID,0.700945,
2009-07-12, 01:39:00,VALID,917.07,VALID,0,VALID,100,VALID,-0.135847,VALID,18.247,VALID,290,VALID,0.342152,
2009-07-12, 01:40:00,VALID,917.066,VALID,0,VALID,100,VALID,-0.135847,VALID,18.2377,VALID,134,VALID,0.0603516,
2009-07-12, 01:41:00,VALID,917.047,VALID,0,VALID,100,VALID,-0.101885,VALID,18.2271,VALID,62,VALID,0.642578,
2009-07-12, 01:42:00,VALID,917.044,VALID,0,VALID,100,VALID,-0.0509425,VALID,18.2359,VALID,46,VALID,0.0928416,
2009-07-12, 01:43:00,VALID,917.03,VALID,0,VALID,100,VALID,-0.0339617,VALID,18.2389,VALID,46,VALID,0,
2009-07-12, 01:44:00,VALID,917.008,VALID,0,VALID,100,VALID,-0.0339617,VALID,18.2423,VALID,46,VALID,0,
2009-07-12, 01:45:00,VALID,916.996,VALID,0,VALID,100,VALID,-0.0339617,VALID,18.2356,VALID,46,VALID,0,
2009-07-12, 01:46:00,VALID,916.985,VALID,0,VALID,100,VALID,-0.0169808,VALID,18.2257,VALID,46,VALID,0,
2009-07-12, 01:47:00,VALID,916.97,VALID,0,VALID,100,VALID,-0.0169808,VALID,18.2294,VALID,46,VALID,0,
2009-07-12, 01:48:00,VALID,916.968,VALID,0,VALID,100,VALID,-0.0679233,VALID,18.2201,VALID,44,VALID,0,
2009-07-12, 01:49:00,VALID,916.951,VALID,0,VALID,100,VALID,-0.0509425,VALID,18.2064,VALID,13,VALID,0.561311,
2009-07-12, 01:50:00,VALID,916.942,VALID,0,VALID,100,VALID,-0.0679233,VALID,18.1868,VALID,54,VALID,0.401486,
2009-07-12, 01:51:00,VALID,916.94,VALID,0,VALID,100,VALID,-0.0849042,VALID,18.2039,VALID,48,VALID,0.126635,
2009-07-12, 01:52:00,VALID,916.94,VALID,0,VALID,100,VALID,-0.0509425,VALID,18.2136,VALID,68,VALID,0.000181686,
2009-07-12, 01:53:00,VALID,916.918,VALID,0,VALID,100,VALID,-0.0849042,VALID,18.1972,VALID,65,VALID,0.581364,
2009-07-12, 01:54:00,VALID,916.914,VALID,0,VALID,100,VALID,-0.0679233,VALID,18.2037,VALID,51,VALID,0.41495,
2009-07-12, 01:55:00,VALID,916.89,VALID,0,VALID,100,VALID,-0.0509425,VALID,18.2101,VALID,51,VALID,0.0407986,
2009-07-12, 01:56:00,VALID,916.899,VALID,0,VALID,100,VALID,-0.0169808,VALID,18.1967,VALID,60,VALID,0.0539435,
2009-07-12, 01:57:00,VALID,916.899,VALID,0,VALID,100,VALID,-0.0339617,VALID,18.184,VALID,115,VALID,0.237571,
2009-07-12, 01:58:00,VALID,916.901,VALID,0,VALID,100,VALID,-0.0679233,VALID,18.1842,VALID,122,VALID,0.349746,
2009-07-12, 01:59:00,VALID,916.906,VALID,0,VALID,100,VALID,-0.101885,VALID,18.1777,VALID,21,VALID,0.0825639,
2009-07-12, 02:00:00,VALID,916.884,VALID,0,VALID,100,VALID,-0.0339617,VALID,18.1842,VALID,42,VALID,1.14022,
2009-07-12, 02:01:00,VALID,916.862,VALID,0,VALID,100,VALID,-0.0169808,VALID,18.1905,VALID,12,VALID,0.169872,
2009-07-12, 02:02:00,VALID,916.837,VALID,0,VALID,100,VALID,-0.0169808,VALID,18.1905,VALID,37,VALID,0.81612,
2009-07-12, 02:03:00,VALID,916.827,VALID,0,VALID,100,VALID,-0.0339617,VALID,18.1805,VALID,34,VALID,0.402644,
2009-07-12, 02:04:00,VALID,916.796,VALID,0,VALID,100,VALID,0,VALID,18.1939,VALID,51,VALID,0.0403963,
2009-07-12, 02:05:00,VALID,916.774,VALID,0,VALID,100,VALID,-0.0509425,VALID,18.1703,VALID,33,VALID,1.17188,
2009-07-12, 02:06:00,VALID,916.759,VALID,0,VALID,100,VALID,-0.0509425,VALID,18.1773,VALID,11,VALID,0.634859,
2009-07-12, 02:07:00,VALID,916.745,VALID,0,VALID,100,VALID,0,VALID,18.1745,VALID,33,VALID,1.13377,
2009-07-12, 02:08:00,VALID,916.737,VALID,0,VALID,100,VALID,-0.0679233,VALID,18.1742,VALID,53,VALID,0.0713778,
2009-07-12, 02:09:00,VALID,916.714,VALID,0,VALID,100,VALID,-0.0169808,VALID,18.171,VALID,23,VALID,0.912348,
2009-07-12, 02:10:00,VALID,916.708,VALID,0,VALID,100,VALID,-0.0339617,VALID,18.1745,VALID,14,VALID,0.869549,
2009-07-12, 02:11:00,VALID,916.703,VALID,0,VALID,100,VALID,-0.0339617,VALID,18.1647,VALID,34,VALID,0.463601,
2009-07-12, 02:12:00,VALID,916.695,VALID,0,VALID,100,VALID,-0.0509425,VALID,18.1678,VALID,16,VALID,0.728016,
2009-07-12, 02:13:00,VALID,916.687,VALID,0,VALID,100,VALID,-0.0169808,VALID,18.168,VALID,352,VALID,0.178052,
2009-07-12, 02:14:00,VALID,916.651,VALID,0,VALID,100,VALID,-0.0679233,VALID,18.1541,VALID,74,VALID,0.937891,
2009-07-12, 02:15:00,VALID,916.668,VALID,0,VALID,100,VALID,-0.0169808,VALID,18.1712,VALID,337,VALID,1.00102,
2009-07-12, 02:16:00,VALID,916.663,VALID,0.2,VALID,100,VALID,-0.0169808,VALID,18.1444,VALID,13,VALID,1.44643,
2009-07-12, 02:17:00,VALID,916.689,VALID,0,VALID,100,VALID,-0.0679233,VALID,18.1448,VALID,39,VALID,1.37736,
2009-07-12, 02:18:00,VALID,916.688,VALID,0,VALID,100,VALID,-0.0679233,VALID,18.1386,VALID,31,VALID,0.787246,
2009-07-12, 02:19:00,VALID,916.686,VALID,0,VALID,100,VALID,-0.0339617,VALID,18.1641,VALID,45,VALID,0.420603,
2009-07-12, 02:20:00,VALID,916.667,VALID,0,VALID,100,VALID,-0.0509425,VALID,18.1541,VALID,5,VALID,1.38172,
2009-07-12, 02:21:00,VALID,916.659,VALID,0,VALID,100,VALID,-0.0169808,VALID,18.1583,VALID,27,VALID,1.59193,
2009-07-12, 02:22:00,VALID,916.648,VALID,0,VALID,100,VALID,0.0169808,VALID,18.1546,VALID,292,VALID,0.818714,
2009-07-12, 02:23:00,VALID,916.661,VALID,0,VALID,100,VALID,-0.0169808,VALID,18.1483,VALID,211,VALID,0.0510417,
2009-07-12, 02:24:00,VALID,916.65,VALID,0,VALID,100,VALID,0,VALID,18.1478,VALID,125,VALID,0.303385,
2009-07-12, 02:25:00,VALID,916.649,VALID,0,VALID,100,VALID,-0.0679233,VALID,18.155,VALID,25,VALID,1.09121,
2009-07-12, 02:26:00,VALID,916.634,VALID,0,VALID,100,VALID,-0.0339617,VALID,18.1383,VALID,15,VALID,0.816584,
2009-07-12, 02:27:00,VALID,916.658,VALID,0,VALID,100,VALID,-0.0509425,VALID,18.1156,VALID,16,VALID,0.433866,
2009-07-12, 02:28:00,VALID,916.65,VALID,0,VALID,100,VALID,-0.0509425,VALID,18.0955,VALID,68,VALID,1.01853,
2009-07-12, 02:29:00,VALID,916.668,VALID,0,VALID,100,VALID,-0.0169808,VALID,18.0964,VALID,11,VALID,0.866824,
2009-07-12, 02:30:00,VALID,916.665,VALID,0,VALID,100,VALID,-0.0169808,VALID,18.086,VALID,17,VALID,0.532366,
2009-07-12, 02:31:00,VALID,916.67,VALID,0,VALID,100,VALID,-0.0339617,VALID,18.0869,VALID,27,VALID,0,
2009-07-12, 02:32:00,VALID,916.641,VALID,0,VALID,100,VALID,-0.0169808,VALID,18.0795,VALID,31,VALID,0.0951705,
2009-07-12, 02:33:00,VALID,916.622,VALID,0,VALID,100,VALID,-0.0169808,VALID,18.067,VALID,23,VALID,0.973214,
2009-07-12, 02:34:00,VALID,916.625,VALID,0,VALID,100,VALID,0,VALID,18.0501,VALID,28,VALID,0.399306,
2009-07-12, 02:35:00,VALID,916.611,VALID,0,VALID,100,VALID,0,VALID,18.0538,VALID,26,VALID,0.0667067,
2009-07-12, 02:36:00,VALID,916.568,VALID,0,VALID,100,VALID,0,VALID,18.0506,VALID,28,VALID,1.19207,
2009-07-12, 02:37:00,VALID,916.538,VALID,0,VALID,100,VALID,0.0169808,VALID,18.0242,VALID,21,VALID,1.52954,
2009-07-12, 02:38:00,VALID,916.544,VALID,0,VALID,100,VALID,0,VALID,18.0406,VALID,17,VALID,1.32383,
2009-07-12, 02:39:00,VALID,916.529,VALID,0,VALID,100,VALID,-0.0169808,VALID,18.0635,VALID,30,VALID,0.908984,
2009-07-12, 02:40:00,VALID,916.522,VALID,0,VALID,100,VALID,-0.0169808,VALID,18.0598,VALID,26,VALID,1.30339,
2009-07-12, 02:41:00,VALID,916.502,VALID,0,VALID,100,VALID,-0.0169808,VALID,18.0668,VALID,21,VALID,1.18731,
2009-07-12, 02:42:00,VALID,916.482,VALID,0,VALID,100,VALID,0.0169808,VALID,18.0536,VALID,351,VALID,0.81891,
2009-07-12, 02:43:00,VALID,916.474,VALID,0,VALID,100,VALID,0,VALID,18.0501,VALID,26,VALID,0.872332,
2009-07-12, 02:44:00,VALID,916.448,VALID,0,VALID,100,VALID,0.0169808,VALID,18.0471,VALID,34,VALID,1.28237,
2009-07-12, 02:45:00,VALID,916.455,VALID,0,VALID,100,VALID,0,VALID,18.0339,VALID,32,VALID,1.30246,
2009-07-12, 02:46:00,VALID,916.459,VALID,0,VALID,100,VALID,0,VALID,18.0242,VALID,30,VALID,0.895008,
2009-07-12, 02:47:00,VALID,916.452,VALID,0,VALID,100,VALID,0.0169808,VALID,18.0242,VALID,23,VALID,0.81994,
2009-07-12, 02:48:00,VALID,916.439,VALID,0,VALID,100,VALID,0.0339617,VALID,18.0374,VALID,28,VALID,1.32973,
2009-07-12, 02:49:00,VALID,916.448,VALID,0,VALID,100,VALID,0.0339617,VALID,18.0401,VALID,16,VALID,1.11533,
2009-07-12, 02:50:00,VALID,916.465,VALID,0,VALID,100,VALID,0.0849042,VALID,18.0436,VALID,14,VALID,1.29155,
2009-07-12, 02:51:00,VALID,916.481,VALID,0,VALID,100,VALID,0.0169808,VALID,18.0566,VALID,11,VALID,0.344494,
2009-07-12, 02:52:00,VALID,916.492,VALID,0,VALID,100,VALID,0.0169808,VALID,18.076,VALID,22,VALID,0.737674,
2009-07-12, 02:53:00,VALID,916.509,VALID,0,VALID,100,VALID,0,VALID,18.0862,VALID,13,VALID,0.163154,
2009-07-12, 02:54:00,VALID,916.497,VALID,0,VALID,100,VALID,0.0169808,VALID,18.0696,VALID,17,VALID,0.426417,
2009-07-12, 02:55:00,VALID,916.509,VALID,0,VALID,100,VALID,-0.0169808,VALID,18.07,VALID,27,VALID,0.92152,
2009-07-12, 02:56:00,VALID,916.523,VALID,0,VALID,100,VALID,0,VALID,18.0633,VALID,25,VALID,0.747332,
2009-07-12, 02:57:00,VALID,916.528,VALID,0,VALID,100,VALID,-0.0679233,VALID,18.0644,VALID,26,VALID,0.474077,
2009-07-12, 02:58:00,VALID,916.538,VALID,0,VALID,100,VALID,-0.0849042,VALID,18.0549,VALID,19,VALID,0.661014,
2009-07-12, 02:59:00,VALID,916.546,VALID,0,VALID,100,VALID,-0.0849042,VALID,18.0422,VALID,12,VALID,0.513494,
2009-07-12, 03:00:00,VALID,916.576,VALID,0,VALID,100,VALID,-0.0679233,VALID,18.0452,VALID,359,VALID,0.367188,
2009-07-12, 03:01:00,VALID,916.568,VALID,0,VALID,100,VALID,-0.101885,VALID,18.0156,VALID,290,VALID,0.00223214,
2009-07-12, 03:02:00,VALID,916.58,VALID,0,VALID,100,VALID,-0.0849042,VALID,18.0058,VALID,291,VALID,0,
2009-07-12, 03:03:00,VALID,916.565,VALID,0,VALID,100,VALID,-0.0849042,VALID,18.0258,VALID,354,VALID,0.527166,
2009-07-12, 03:04:00,VALID,916.537,VALID,0,VALID,100,VALID,-0.101885,VALID,18.0193,VALID,9,VALID,0.518288,
2009-07-12, 03:05:00,VALID,916.543,VALID,0,VALID,100,VALID,-0.0679233,VALID,18.0058,VALID,23,VALID,0.855945,
2009-07-12, 03:06:00,VALID,916.533,VALID,0,VALID,100,VALID,-0.0849042,VALID,18.0031,VALID,20,VALID,0.614955,
2009-07-12, 03:07:00,VALID,916.524,VALID,0,VALID,100,VALID,-0.0849042,VALID,18.0061,VALID,19,VALID,0.920117,
2009-07-12, 03:08:00,VALID,916.501,VALID,0,VALID,100,VALID,-0.0339617,VALID,18.0223,VALID,15,VALID,0.796148,
2009-07-12, 03:09:00,VALID,916.496,VALID,0,VALID,100,VALID,-0.0509425,VALID,18.0353,VALID,22,VALID,1.02131,
2009-07-12, 03:10:00,VALID,916.475,VALID,0,VALID,100,VALID,-0.0849042,VALID,18.0255,VALID,10,VALID,1.40244,
2009-07-12, 03:11:00,VALID,916.46,VALID,0,VALID,100,VALID,-0.0849042,VALID,18.0262,VALID,2,VALID,1.36142,
2009-07-12, 03:12:00,VALID,916.452,VALID,0,VALID,100,VALID,0.0169808,VALID,18.0568,VALID,14,VALID,1.02992,
2009-07-12, 03:13:00,VALID,916.427,VALID,0,VALID,100,VALID,0,VALID,18.0728,VALID,21,VALID,1.19773,
2009-07-12, 03:14:00,VALID,916.424,VALID,0,VALID,100,VALID,0.0169808,VALID,18.0862,VALID,8,VALID,0.970567,
2009-07-12, 03:15:00,VALID,916.413,VALID,0,VALID,100,VALID,0.0169808,VALID,18.0696,VALID,9,VALID,0.4375,
2009-07-12, 03:16:00,VALID,916.417,VALID,0,VALID,100,VALID,0,VALID,18.0728,VALID,12,VALID,0.251524,
2009-07-12, 03:17:00,VALID,916.418,VALID,0,VALID,100,VALID,0.0169808,VALID,18.0665,VALID,18,VALID,0.10119,
2009-07-12, 03:18:00,VALID,916.411,VALID,0,VALID,100,VALID,-0.0169808,VALID,18.0601,VALID,34,VALID,0,
2009-07-12, 03:19:00,VALID,916.399,VALID,0,VALID,100,VALID,-0.0169808,VALID,18.0635,VALID,182,VALID,0.179324,
2009-07-12, 03:20:00,VALID,916.401,VALID,0,VALID,100,VALID,-0.0169808,VALID,18.0696,VALID,238,VALID,0.153764,
2009-07-12, 03:21:00,VALID,916.408,VALID,0,VALID,100,VALID,0.0169808,VALID,18.0797,VALID,252,VALID,0,
2009-07-12, 03:22:00,VALID,916.411,VALID,0,VALID,100,VALID,0,VALID,18.0568,VALID,242,VALID,0.194196,
2009-07-12, 03:23:00,VALID,916.412,VALID,0,VALID,100,VALID,0,VALID,18.064,VALID,209,VALID,0.491146,
2009-07-12, 03:24:00,VALID,916.449,VALID,0,VALID,100,VALID,-0.0169808,VALID,18.0438,VALID,200,VALID,0.172256,
2009-07-12, 03:25:00,VALID,916.462,VALID,0,VALID,100,VALID,0.0339617,VALID,18.0471,VALID,193,VALID,0.482244,
2009-07-12, 03:26:00,VALID,916.467,VALID,0,VALID,100,VALID,-0.0169808,VALID,18.0309,VALID,146,VALID,0.507031,
2009-07-12, 03:27:00,VALID,916.48,VALID,0,VALID,100,VALID,0.0169808,VALID,18.0306,VALID,20,VALID,0.165661,
2009-07-12, 03:28:00,VALID,916.484,VALID,0,VALID,100,VALID,-0.0169808,VALID,18.0415,VALID,19,VALID,0.729852,
2009-07-12, 03:29:00,VALID,916.474,VALID,0,VALID,100,VALID,0,VALID,18.0049,VALID,22,VALID,1.14489,
2009-07-12, 03:30:00,VALID,916.463,VALID,0,VALID,100,VALID,0,VALID,17.9987,VALID,27,VALID,0.958394,
2009-07-12, 03:31:00,VALID,916.462,VALID,0,VALID,100,VALID,-0.0169808,VALID,18.0119,VALID,23,VALID,1.42264,
2009-07-12, 03:32:00,VALID,916.461,VALID,0,VALID,100,VALID,0.0169808,VALID,18.0339,VALID,20,VALID,1.16101,
2009-07-12, 03:33:00,VALID,916.448,VALID,0,VALID,100,VALID,-0.0169808,VALID,18.0501,VALID,22,VALID,1.21914,
2009-07-12, 03:34:00,VALID,916.442,VALID,0,VALID,100,VALID,0.0169808,VALID,18.0561,VALID,360,VALID,0.668423,
2009-07-12, 03:35:00,VALID,916.448,VALID,0,VALID,100,VALID,0,VALID,18.0628,VALID,4,VALID,0,
2009-07-12, 03:36:00,VALID,916.457,VALID,0,VALID,100,VALID,0.0339617,VALID,18.0693,VALID,4,VALID,0,
2009-07-12, 03:37:00,VALID,916.456,VALID,0,VALID,100,VALID,-0.0169808,VALID,18.0804,VALID,4,VALID,0,
2009-07-12, 03:38:00,VALID,916.453,VALID,0,VALID,100,VALID,-0.0169808,VALID,18.0665,VALID,15,VALID,0.304324,
2009-07-12, 03:39:00,VALID,916.447,VALID,0,VALID,100,VALID,0,VALID,18.0631,VALID,8,VALID,0.311719,
2009-07-12, 03:40:00,VALID,916.448,VALID,0,VALID,100,VALID,0.0169808,VALID,18.0536,VALID,7,VALID,0.107292,
2009-07-12, 03:41:00,VALID,916.458,VALID,0,VALID,100,VALID,0,VALID,18.0633,VALID,15,VALID,0.424107,
2009-07-12, 03:42:00,VALID,916.46,VALID,0,VALID,100,VALID,0,VALID,18.0471,VALID,26,VALID,0.0325521,